216  
ASUS43 KTOP 241108  
RWRKS  
 
WEATHER ROUNDUP FOR KANSAS  
NATIONAL WEATHER SERVICE GOODLAND KS  
600 AM CDT MON SEP 24 2018  
 
NOTE: "FAIR" INDICATES FEW OR NO CLOUDS BELOW 12,000 FEET WITH NO  
SIGNIFICANT WEATHER AND/OR S TO VISIBILITY
.  
 
KSZ001>006-013>018-027>032-041>047-241200-  
NORTHWEST KANSAS  
 
CITY SKY/WX TMP DP RH WIND PRES REMARKS
 
GOODLAND CLEAR 56 45 66 S13 29.80F  
HAYS CLOUDY 61 59 93 S17 29.87F  
HILL CITY MOCLDY 58 57 97 SE5 29.83F  
RUSSELL CLOUDY 62 61 96 S13G23 29.87S  

 
 
KSZ061>065-074>080-084>089-241200-  
SOUTHWEST KANSAS  
 
CITY SKY/WX TMP DP RH WIND PRES REMARKS
 
DODGE CITY CLOUDY 60 57 89 S18G26 29.90S  
ELKHART CLEAR 55 48 79 SW12 29.90S  
GARDEN CITY PTCLDY 57 56 96 S10 29.88F FOG  
GREAT BEND N/A 61 59 93 S16G22 29.90R  
LIBERAL CLOUDY 58 57 97 S15 29.92S FOG  
PRATT CLOUDY 60 59 95 S14 29.92S FOG  

 
 
KSZ066>073-081>083-090>101-241200-  
SOUTHEAST KANSAS  
 
CITY SKY/WX TMP DP RH WIND PRES REMARKS
 
CHANUTE MOCLDY 63 63 100 E5 29.94S  
COFFEYVILLE CLOUDY 68 65 90 CALM 29.90S  
HUTCHINSON CLOUDY 63 63 100 S15 29.91S  
MEDICINE LODGE N/A 62 62 100 S8 29.92S  
NEWTON LGT RAIN 62 61 96 S7 29.93S FOG  
PARSONS CLOUDY 67 65 93 CALM 29.94S  
WICHITA INTL DRIZZLE 64 64 100 S6 29.92S FOG  
WICHITA JABRA CLOUDY 63 63 100 S6 29.93S FOG  
WICHITA MCCONL CLOUDY 64 63 98 SW6 29.93 FOG  
WINFIELD CLOUDY 64 64 100 CALM 29.94S  

 
 
KSZ007>012-019>026-033>040-048>060-102>105-241200-  
NORTHEAST KANSAS  
 
CITY SKY/WX TMP DP RH WIND PRES REMARKS
 
CONCORDIA CLOUDY 60 60 100 S13 29.90S FOG  
EMPORIA CLOUDY 59 58 96 SE3 29.94S  
LAWRENCE CLOUDY 64 63 96 E3 29.94S  
MANHATTAN CLOUDY 61 61 100 S5 29.93 FOG  
MARYSVILLE CLEAR 55 55 100 SE3 29.93S  
OLATHE IND CLOUDY 67 65 93 SE5 29.96S  
OLATHE EXE CLOUDY 66 64 93 SE3 29.95S  
SALINA CLOUDY 65 63 93 S14G21 29.90S  
TOPEKA BILLARD FOG 56 56 100 CALM 29.94R VSB 1/2  
TOPEKA FORBES FOG 53 53 100 CALM 29.94R VSB 3/4  

 
 
 
CLICK HERE TO GO TO PREVIOUS BULLETINS.

The Nexlab KS Page Main Text Page